Time,TemperatureF,DewpointF,PressureIn,WindDirection,WindDirectionDegrees,WindSpeedMPH,WindSpeedGustMPH,Humidity,HourlyPrecipIn,Conditions,Clouds,dailyrainin,SoftwareType,DateUTC
2013-12-12 00:14:00,4.4,0.0,30.78,North,355,0.0,0.0,81,0.00,,,0.00,weatherlink.com 1.10,2013-12-12 07:14:00,
2013-12-12 00:29:00,4.5,0.0,30.77,North,355,0.0,0.0,81,0.00,,,0.00,weatherlink.com 1.10,2013-12-12 07:29:00,
2013-12-12 00:44:00,4.3,0.0,30.77,North,355,0.0,0.0,82,0.00,,,0.00,weatherlink.com 1.10,2013-12-12 07:44:00,
2013-12-12 00:59:00,4.4,0.0,30.77,North,355,0.0,0.0,82,0.00,,,0.00,weatherlink.com 1.10,2013-12-12 07:59:00,
2013-12-12 01:14:00,4.0,0.0,30.76,North,355,0.0,0.0,83,0.00,,,0.00,weatherlink.com 1.10,2013-12-12 08:14:00,
2013-12-12 01:29:00,4.2,0.0,30.76,North,355,0.0,0.0,82,0.00,,,0.00,weatherlink.com 1.10,2013-12-12 08:29:00,
2013-12-12 01:44:00,4.1,0.0,30.76,North,355,0.0,0.0,83,0.00,,,0.00,weatherlink.com 1.10,2013-12-12 08:44:00,
2013-12-12 01:59:00,4.5,0.0,30.76,North,355,0.0,0.0,83,0.00,,,0.00,weatherlink.com 1.10,2013-12-12 08:59:00,
2013-12-12 02:14:00,5.4,2.0,30.76,North,355,0.0,1.0,85,0.00,,,0.00,weatherlink.com 1.10,2013-12-12 09:14:00,
2013-12-12 02:29:00,4.9,0.0,30.75,North,355,0.0,1.0,80,0.00,,,0.00,weatherlink.com 1.10,2013-12-12 09:29:00,
2013-12-12 02:44:00,4.2,0.0,30.75,North,355,0.0,2.0,82,0.00,,,0.00,weatherlink.com 1.10,2013-12-12 09:44:00,
2013-12-12 02:59:00,4.2,0.0,30.75,North,355,0.0,1.0,83,0.00,,,0.00,weatherlink.com 1.10,2013-12-12 09:59:00,
2013-12-12 03:14:00,4.8,1.0,30.75,North,355,0.0,1.0,84,0.00,,,0.00,weatherlink.com 1.10,2013-12-12 10:14:00,
2013-12-12 03:29:00,5.1,1.0,30.75,North,355,0.0,1.0,83,0.00,,,0.00,weatherlink.com 1.10,2013-12-12 10:29:00,
2013-12-12 03:44:00,4.7,0.0,30.73,North,355,0.0,1.0,82,0.00,,,0.00,weatherlink.com 1.10,2013-12-12 10:44:00,
2013-12-12 03:59:00,4.0,-1.0,30.73,North,355,0.0,0.0,80,0.00,,,0.00,weatherlink.com 1.10,2013-12-12 10:59:00,
2013-12-12 04:14:00,3.3,-1.0,30.73,North,355,0.0,1.0,82,0.00,,,0.00,weatherlink.com 1.10,2013-12-12 11:14:00,
2013-12-12 04:29:00,2.9,-1.0,30.73,North,355,0.0,0.0,82,0.00,,,0.00,weatherlink.com 1.10,2013-12-12 11:29:00,
2013-12-12 04:44:00,2.8,-2.0,30.74,North,355,0.0,0.0,82,0.00,,,0.00,weatherlink.com 1.10,2013-12-12 11:44:00,
2013-12-12 04:59:00,2.4,-2.0,30.74,North,355,0.0,1.0,81,0.00,,,0.00,weatherlink.com 1.10,2013-12-12 11:59:00,
2013-12-12 05:14:00,2.6,-2.0,30.74,North,355,1.0,1.0,81,0.00,,,0.00,weatherlink.com 1.10,2013-12-12 12:14:00,
2013-12-12 05:30:00,1.9,-2.0,30.73,North,355,0.0,1.0,82,0.00,,,0.00,weatherlink.com 1.10,2013-12-12 12:30:00,
2013-12-12 05:45:00,3.1,-1.0,30.73,North,355,0.0,1.0,84,0.00,,,0.00,weatherlink.com 1.10,2013-12-12 12:45:00,
2013-12-12 06:00:00,3.6,0.0,30.73,North,355,0.0,1.0,83,0.00,,,0.00,weatherlink.com 1.10,2013-12-12 13:00:00,
2013-12-12 06:15:00,4.1,0.0,30.74,North,355,0.0,0.0,84,0.00,,,0.00,weatherlink.com 1.10,2013-12-12 13:15:00,
2013-12-12 06:30:00,3.3,-1.0,30.74,North,355,0.0,0.0,81,0.00,,,0.00,weatherlink.com 1.10,2013-12-12 13:30:00,
2013-12-12 06:45:00,3.6,0.0,30.73,North,355,0.0,0.0,83,0.00,,,0.00,weatherlink.com 1.10,2013-12-12 13:45:00,
2013-12-12 07:00:00,3.6,-1.0,30.73,North,355,0.0,0.0,82,0.00,,,0.00,weatherlink.com 1.10,2013-12-12 14:00:00,
2013-12-12 07:15:00,4.1,0.0,30.73,North,355,0.0,0.0,82,0.00,,,0.00,weatherlink.com 1.10,2013-12-12 14:15:00,
2013-12-12 07:32:00,4.1,0.0,30.73,North,355,0.0,0.0,83,0.00,,,0.00,weatherlink.com 1.10,2013-12-12 14:32:00,
2013-12-12 07:46:00,4.7,1.0,30.73,North,355,0.0,0.0,83,0.00,,,0.00,weatherlink.com 1.10,2013-12-12 14:46:00,
2013-12-12 08:02:00,5.6,2.0,30.73,North,355,0.0,0.0,83,0.00,,,0.00,weatherlink.com 1.10,2013-12-12 15:02:00,
2013-12-12 08:16:00,8.8,6.0,30.72,North,355,0.0,0.0,87,0.00,,,0.00,weatherlink.com 1.10,2013-12-12 15:16:00,
2013-12-12 08:32:00,11.8,7.0,30.71,North,355,0.0,0.0,81,0.00,,,0.00,weatherlink.com 1.10,2013-12-12 15:32:00,
2013-12-12 08:46:00,13.1,7.0,30.70,North,355,0.0,2.0,78,0.00,,,0.00,weatherlink.com 1.10,2013-12-12 15:46:00,
2013-12-12 09:01:00,16.0,9.0,30.69,North,355,0.0,0.0,74,0.00,,,0.00,weatherlink.com 1.10,2013-12-12 16:01:00,
2013-12-12 09:16:00,18.1,9.0,30.68,North,355,0.0,2.0,68,0.00,,,0.00,weatherlink.com 1.10,2013-12-12 16:16:00,
2013-12-12 09:31:00,18.6,9.0,30.68,North,355,0.0,3.0,66,0.00,,,0.00,weatherlink.com 1.10,2013-12-12 16:31:00,
2013-12-12 09:46:00,19.2,9.0,30.68,North,355,0.0,2.0,65,0.00,,,0.00,weatherlink.com 1.10,2013-12-12 16:46:00,
2013-12-12 10:01:00,21.1,9.0,30.67,North,355,0.0,2.0,61,0.00,,,0.00,weatherlink.com 1.10,2013-12-12 17:01:00,
2013-12-12 10:16:00,23.3,10.0,30.65,North,355,0.0,3.0,57,0.00,,,0.00,weatherlink.com 1.10,2013-12-12 17:16:00,
2013-12-12 10:31:00,25.3,10.0,30.65,North,355,1.0,4.0,53,0.00,,,0.00,weatherlink.com 1.10,2013-12-12 17:31:00,
2013-12-12 10:46:00,26.3,11.0,30.64,North,351,2.0,4.0,52,0.00,,,0.00,weatherlink.com 1.10,2013-12-12 17:46:00,
2013-12-12 11:02:00,27.0,10.0,30.63,North,350,0.0,4.0,49,0.00,,,0.00,weatherlink.com 1.10,2013-12-12 18:02:00,
2013-12-12 11:16:00,27.6,11.0,30.62,North,350,0.0,3.0,51,0.00,,,0.00,weatherlink.com 1.10,2013-12-12 18:16:00,
2013-12-12 11:31:00,26.9,10.0,30.62,North,349,0.0,4.0,50,0.00,,,0.00,weatherlink.com 1.10,2013-12-12 18:31:00,
2013-12-12 11:46:00,28.4,11.0,30.60,North,349,0.0,3.0,48,0.00,,,0.00,weatherlink.com 1.10,2013-12-12 18:46:00,
2013-12-12 12:02:00,27.6,10.0,30.60,NNW,345,0.0,6.0,48,0.00,,,0.00,weatherlink.com 1.10,2013-12-12 19:02:00,
2013-12-12 12:17:00,27.7,11.0,30.59,NNW,346,2.0,5.0,49,0.00,,,0.00,weatherlink.com 1.10,2013-12-12 19:17:00,
2013-12-12 12:32:00,29.1,11.0,30.58,NNW,343,0.0,4.0,47,0.00,,,0.00,weatherlink.com 1.10,2013-12-12 19:32:00,
2013-12-12 12:47:00,29.9,12.0,30.56,NNW,342,0.0,4.0,47,0.00,,,0.00,weatherlink.com 1.10,2013-12-12 19:47:00,
2013-12-12 13:02:00,30.6,12.0,30.55,NNW,342,0.0,4.0,46,0.00,,,0.00,weatherlink.com 1.10,2013-12-12 20:02:00,
2013-12-12 13:17:00,30.7,12.0,30.55,NNW,342,0.0,3.0,46,0.00,,,0.00,weatherlink.com 1.10,2013-12-12 20:17:00,
2013-12-12 13:32:00,31.1,12.0,30.52,North,355,1.0,3.0,46,0.00,,,0.00,weatherlink.com 1.10,2013-12-12 20:32:00,
2013-12-12 13:47:00,32.1,13.0,30.51,North,355,0.0,3.0,45,0.00,,,0.00,weatherlink.com 1.10,2013-12-12 20:47:00,
2013-12-12 14:02:00,32.4,13.0,30.49,North,355,0.0,3.0,45,0.00,,,0.00,weatherlink.com 1.10,2013-12-12 21:02:00,
2013-12-12 14:17:00,33.4,13.0,30.48,North,355,1.0,3.0,43,0.00,,,0.00,weatherlink.com 1.10,2013-12-12 21:17:00,
2013-12-12 14:32:00,34.2,14.0,30.47,North,355,0.0,4.0,43,0.00,,,0.00,weatherlink.com 1.10,2013-12-12 21:32:00,
2013-12-12 14:47:00,34.4,14.0,30.47,North,351,0.0,4.0,43,0.00,,,0.00,weatherlink.com 1.10,2013-12-12 21:47:00,
2013-12-12 15:02:00,32.1,13.0,30.47,North,350,0.0,2.0,46,0.00,,,0.00,weatherlink.com 1.10,2013-12-12 22:02:00,
2013-12-12 15:18:00,31.4,13.0,30.47,North,350,0.0,1.0,46,0.00,,,0.00,weatherlink.com 1.10,2013-12-12 22:18:00,
2013-12-12 15:33:00,31.6,13.0,30.46,North,350,0.0,2.0,47,0.00,,,0.00,weatherlink.com 1.10,2013-12-12 22:33:00,
2013-12-12 15:48:00,31.9,14.0,30.45,NNW,342,0.0,3.0,47,0.00,,,0.00,weatherlink.com 1.10,2013-12-12 22:48:00,
2013-12-12 16:03:00,31.9,15.0,30.45,NNW,341,0.0,3.0,49,0.00,,,0.00,weatherlink.com 1.10,2013-12-12 23:03:00,
2013-12-12 16:18:00,32.0,14.0,30.45,NNW,341,0.0,2.0,48,0.00,,,0.00,weatherlink.com 1.10,2013-12-12 23:18:00,
2013-12-12 16:33:00,30.9,13.0,30.45,NNW,342,0.0,0.0,48,0.00,,,0.00,weatherlink.com 1.10,2013-12-12 23:33:00,
2013-12-12 16:48:00,27.9,12.0,30.45,NNW,342,0.0,0.0,52,0.00,,,0.00,weatherlink.com 1.10,2013-12-12 23:48:00,
2013-12-12 17:03:00,25.6,12.0,30.45,NNW,342,0.0,1.0,56,0.00,,,0.00,weatherlink.com 1.10,2013-12-13 00:03:00,
2013-12-12 17:18:00,24.0,12.0,30.45,NNW,341,1.0,2.0,60,0.00,,,0.00,weatherlink.com 1.10,2013-12-13 00:18:00,
2013-12-12 17:33:00,23.0,12.0,30.44,NNW,342,0.0,2.0,64,0.00,,,0.00,weatherlink.com 1.10,2013-12-13 00:33:00,
2013-12-12 17:48:00,22.8,13.0,30.44,NNW,342,0.0,3.0,66,0.00,,,0.00,weatherlink.com 1.10,2013-12-13 00:48:00,
2013-12-12 18:03:00,22.2,11.0,30.45,NNW,342,0.0,2.0,63,0.00,,,0.00,weatherlink.com 1.10,2013-12-13 01:03:00,
2013-12-12 18:18:00,21.9,12.0,30.45,NNW,341,0.0,0.0,65,0.00,,,0.00,weatherlink.com 1.10,2013-12-13 01:18:00,
2013-12-12 18:33:00,21.2,11.0,30.46,NNW,342,0.0,0.0,66,0.00,,,0.00,weatherlink.com 1.10,2013-12-13 01:33:00,
2013-12-12 18:48:00,19.5,10.0,30.46,NNW,341,0.0,2.0,66,0.00,,,0.00,weatherlink.com 1.10,2013-12-13 01:48:00,
2013-12-12 19:04:00,18.2,9.0,30.46,NNW,341,0.0,0.0,68,0.00,,,0.00,weatherlink.com 1.10,2013-12-13 02:04:00,
2013-12-12 19:19:00,17.7,10.0,30.45,NNW,342,0.0,1.0,73,0.00,,,0.00,weatherlink.com 1.10,2013-12-13 02:19:00,
2013-12-12 19:34:00,18.8,12.0,30.44,NNW,342,0.0,1.0,75,0.00,,,0.00,weatherlink.com 1.10,2013-12-13 02:34:00,
2013-12-12 19:49:00,19.4,14.0,30.43,NNW,342,0.0,0.0,80,0.00,,,0.00,weatherlink.com 1.10,2013-12-13 02:49:00,
2013-12-12 20:04:00,19.4,12.0,30.43,NNW,341,0.0,0.0,74,0.00,,,0.00,weatherlink.com 1.10,2013-12-13 03:04:00,
2013-12-12 20:19:00,19.4,12.0,30.42,NNW,342,0.0,0.0,73,0.00,,,0.00,weatherlink.com 1.10,2013-12-13 03:19:00,
2013-12-12 20:34:00,18.6,11.0,30.42,NNW,342,0.0,0.0,71,0.00,,,0.00,weatherlink.com 1.10,2013-12-13 03:34:00,
2013-12-12 20:49:00,17.4,10.0,30.41,NNW,342,0.0,0.0,72,0.00,,,0.00,weatherlink.com 1.10,2013-12-13 03:49:00,
2013-12-12 21:04:00,16.1,10.0,30.41,NNW,341,0.0,2.0,75,0.00,,,0.00,weatherlink.com 1.10,2013-12-13 04:04:00,
2013-12-12 21:19:00,15.1,9.0,30.39,NNW,341,0.0,0.0,77,0.00,,,0.00,weatherlink.com 1.10,2013-12-13 04:19:00,
2013-12-12 21:34:00,14.6,9.0,30.38,NNW,342,0.0,0.0,77,0.00,,,0.00,weatherlink.com 1.10,2013-12-13 04:34:00,
2013-12-12 21:49:00,14.8,10.0,30.36,NNW,342,0.0,2.0,82,0.00,,,0.00,weatherlink.com 1.10,2013-12-13 04:49:00,
2013-12-12 22:04:00,15.7,11.0,30.36,NNW,342,0.0,0.0,81,0.00,,,0.00,weatherlink.com 1.10,2013-12-13 05:04:00,
2013-12-12 22:19:00,14.8,9.0,30.36,NNW,341,1.0,1.0,78,0.00,,,0.00,weatherlink.com 1.10,2013-12-13 05:19:00,
2013-12-12 22:35:00,13.7,9.0,30.35,NNW,342,0.0,0.0,80,0.00,,,0.00,weatherlink.com 1.10,2013-12-13 05:35:00,
2013-12-12 22:50:00,12.8,8.0,30.35,NNW,342,0.0,0.0,82,0.00,,,0.00,weatherlink.com 1.10,2013-12-13 05:50:00,
2013-12-12 23:05:00,12.1,7.0,30.34,NNW,341,0.0,0.0,81,0.00,,,0.00,weatherlink.com 1.10,2013-12-13 06:05:00,
2013-12-12 23:20:00,11.4,7.0,30.33,NNW,341,0.0,1.0,82,0.00,,,0.00,weatherlink.com 1.10,2013-12-13 06:20:00,
2013-12-12 23:35:00,11.3,7.0,30.32,NNW,342,0.0,0.0,83,0.00,,,0.00,weatherlink.com 1.10,2013-12-13 06:35:00,
2013-12-12 23:50:00,11.2,8.0,30.31,NNW,342,0.0,0.0,86,0.00,,,0.00,weatherlink.com 1.10,2013-12-13 06:50:00,